Location: Cedar Brake
(32.2526°N, 97.8459°W)
Time: 20:39:11
(UTC+00:00)

CZ-3 Stage 3 - Pass Details

Date: 22 April 2026
Orbit: 211 x 9193 km, 30.8° (Epoch: 21 May)

Event Time Altitude Azimuth Distance (km) Brightness Sun altitude
Exits shadow 09:11:40 76° 231° (SW) 1,319 2.9 -31.0°
Maximum altitude 09:12:16 82° 176° (S) 1,381 3.0 -31.0°
Drops below altitude 10° 09:31:12 10° 91° (E) 7,544 7.6 -27.9°
Sets 09:41:32 0° 92° (E) 10,352 8.5 -26.1°
